CAPE
0 0 0 0 2 11 0 2 2 1 0 0 0 0 0 0 0 0 0 0 0 0 0 0 0 0 0 0 0 0 0 0 0 0 0 0 1 0 5 5 6 7 9 9
0 0 0 1 4 7 28 28 35 0 0 0 0 0 0 0 0 0 0 0 0 0 0 0 0 0 0 0 0 0 0 0 0 0 0 0 0 0 0 0 5 7 6 4
0 0 0 0 0 0 40 53 11 0 0 0 0 0 0 0 0 0 0 0 0 0 0 0 0 0 0 0 0 0 0 0 0 0 0 0 0 0 0 0 0 0 1 0
0 0 0 0 0 0 12 9 5 0 0 0 0 32 0 0 0 0 0 0 0 0 0 0 0 0 0 0 0 0 0 0 0 0 0 0 0 0 0 0 0 0 0 0
0 0 0 0 0 0 36 0 0 0 2 3 0 0 11 0 0 0 0 0 0 0 0 0 0 0 0 0 0 0 0 0 0 0 0 0 0 0 0 0 0 0 0 0
0 0 0 0 0 0 0 0 0 0 2 6 0 0 0 0 0 0 0 0 0 0 0 0 0 0 0 0 0 0 0 0 0 0 0 0 0 0 0 0 0 0 0 0
0 0 0 0 0 0 0 0 0 0 5 0 0 0 30 0 0 0 0 0 0 0 0 0 0 0 0 0 0 0 0 0 0 0 0 0 0 0 0 0 0 0 0 0
0 0 0 0 0 0 0 0 1 0 0 0 0 0 0 0 0 0 0 0 0 0 0 0 0 0 0 0 0 0 0 0 0 0 0 0 0 0 0 0 0 0 0 0
0 0 0 0 0 0 0 0 3 0 0 20 0 0 0 0 0 0 0 0 0 0 0 0 0 0 0 0 0 0 0 0 0 0 0 0 0 0 0 0 0 0 0 0
0 0 0 0 0 0 0 0 0 0 34 0 0 0 0 0 0 0 0 0 0 0 0 0 0 0 0 0 0 0 0 0 0 0 0 0 0 0 0 0 0 0 0 0
0 0 0 0 0 0 0 0 0 0 0 0 0 0 0 0 0 0 0 0 0 0 0 0 0 0 0 0 0 0 0 0 0 0 0 0 0 0 0 0 0 0 0 0
0 0 0 0 0 0 0 0 0 49 65 0 122 193 0 0 0 0 0 0 0 0 0 0 0 0 0 0 0 0 0 0 0 0 0 0 0 0 0 0 0 0 0 0
0 0 0 0 0 0 0 0 0 0 0 16 128 15 0 0 0 0 0 0 0 0 0 0 0 0 0 0 0 0 0 0 0 0 0 0 0 0 0 0 0 0 0 0
0 0 0 0 0 0 0 0 0 0 0 0 0 0 0 0 0 0 0 0 0 0 0 0 0 0 0 0 0 0 0 0 0 0 0 0 0 0 0 0 0 0 0 0
0 0 0 0 0 0 0 0 0 0 0 0 0 0 0 0 0 0 0 0 0 0 0 0 0 0 0 0 0 0 0 0 0 0 0 0 0 0 0 0 0 0 0 0
0 0 0 0 0 0 0 0 0 0 0 0 0 0 0 0 0 0 0 0 0 0 0 0 0 0 0 0 0 0 0 0 0 0 0 0 0 0 0 0 0 0 0 0
0 4 5 0 0 0 0 0 0 0 0 0 0 0 0 0 0 0 0 0 0 0 0 0 0 0 0 0 0 0 0 0 0 0 0 0 0 0 0 0 0 0 0 0
0 0 18 1 2 10 0 0 0 0 0 0 0 0 0 0 0 0 0 0 0 0 0 0 0 0 0 0 0 0 0 0 0 0 0 0 0 0 0 0 0 0 0 0
0 15 175 57 4 0 0 0 0 0 0 0 0 0 0 0 0 0 0 0 0 0 0 0 0 0 0 0 0 0 0 0 0 0 0 0 0 0 0 0 0 0 0 0
0 18 106 11 48 0 0 0 0 0 0 0 0 0 0 0 0 0 0 0 0 0 0 0 0 0 0 0 0 0 0 0 0 0 0 0 0 0 0 0 0 0 0 0
0 75 165 25 2 0 0 0 0 0 0 0 0 0 0 0 0 0 0 0 0 0 0 0 0 0 0 0 0 0 0 0 0 0 0 0 0 0 0 0 0 0 0 0
0 1 55 71 89 1 0 0 0 0 0 0 0 0 0 0 0 0 0 0 0 0 0 0 0 0 0 0 0 0 0 0 0 0 0 0 0 0 0 0 0 0 0 0
33 2 14 4 2 0 0 0 0 0 0 0 0 0 0 0 0 0 0 0 0 0 0 0 0 0 0 0 0 0 0 0 0 0 0 0 0 0 0 0 0 0 0 0
17 11 66 49 8 0 0 0 0 0 0 0 0 0 0 0 0 0 0 0 0 0 0 0 0 0 0 0 0 0 0 0 0 0 0 0 0 0 0 0 0 0 2 4
11 10 10 64 40 5 0 0 0 0 0 0 0 0 0 0 0 0 0 0 0 0 0 0 0 0 0 0 0 0 0 0 0 0 0 0 0 0 0 0 0 0 0 0
6 21 78 28 57 17 0 0 0 0 0 0 0 0 0 0 0 0 0 0 0 0 0 0 0 0 0 0 0 0 0 0 0 0 0 0 0 0 0 1 3 0 0 0
CIN
0 0 0 0 0 0 0 0 -4 -1 0 0 0 0 0 0 0 0 0 0 0 0 0 0 0 0 0 0 0 0 0 0 0 0 0 0 0 0 0 0 0 0 0 0
0 0 0 0 0 -2 0 -1 -5 0 0 0 0 0 0 0 0 0 0 0 0 0 0 0 0 0 0 0 0 0 0 0 0 0 0 0 0 0 0 0 0 0 0 0
0 0 0 0 0 0 -3 -1 -26 0 0 0 0 0 0 0 0 0 0 0 0 0 0 0 0 0 0 0 0 0 0 0 0 0 0 0 0 0 0 0 0 0 0 0
0 0 0 0 0 0 -1 -7 -21 0 0 0 0 0 0 0 0 0 0 0 0 0 0 0 0 0 0 0 0 0 0 0 0 0 0 0 0 0 0 0 0 0 0 0
0 0 0 0 0 0 -1 0 0 0 0 0 0 0 0 0 0 0 0 0 0 0 0 0 0 0 0 0 0 0 0 0 0 0 0 0 0 0 0 0 0 0 0 0
0 0 0 0 0 0 0 0 0 0 0 0 0 0 0 0 0 0 0 0 0 0 0 0 0 0 0 0 0 0 0 0 0 0 0 0 0 0 0 0 0 0 0 0
0 0 0 0 0 0 0 0 0 0 0 -19 0 0 -11 0 0 0 0 0 0 0 0 0 0 0 0 0 0 0 0 0 0 0 0 0 0 0 0 0 0 0 0 0
0 0 0 0 0 0 0 0 0 0 0 0 0 0 0 0 0 0 0 0 0 0 0 0 0 0 0 0 0 0 0 0 0 0 0 0 0 0 0 0 0 0 0 0
0 0 0 0 0 0 0 0 -2 0 0 -2 0 0 0 0 0 0 0 0 0 0 0 0 0 0 0 0 0 0 0 0 0 0 0 0 0 0 0 0 0 0 0 0
0 0 0 0 0 0 0 0 0 0 -8 0 0 0 0 0 0 0 0 0 0 0 0 0 0 0 0 0 0 0 0 0 0 0 0 0 0 0 0 0 0 0 0 0
0 0 0 0 0 0 0 0 0 0 0 0 0 0 0 0 0 0 0 0 0 0 0 0 0 0 0 0 0 0 0 0 0 0 0 0 0 0 0 0 0 0 0 0
0 0 0 0 0 0 0 0 0 -21 -33 0 -40 -11 0 0 0 0 0 0 0 0 0 0 0 0 0 0 0 0 0 0 0 0 0 0 0 0 0 0 0 0 0 0
0 0 0 0 0 0 0 0 0 0 0 -65 -1 -33 0 0 0 0 0 0 0 0 0 0 0 0 0 0 0 0 0 0 0 0 0 0 0 0 0 0 0 0 0 0
0 0 0 0 0 0 0 0 0 0 0 0 0 0 0 0 0 0 0 0 0 0 0 0 0 0 0 0 0 0 0 0 0 0 0 0 0 0 0 0 0 0 0 0
0 0 0 0 0 0 0 0 0 0 0 0 0 0 0 0 0 0 0 0 0 0 0 0 0 0 0 0 0 0 0 0 0 0 0 0 0 0 0 0 0 0 0 0
0 0 0 -1 0 0 0 0 0 0 0 0 0 0 0 0 0 0 0 0 0 0 0 0 0 0 0 0 0 0 0 0 0 0 0 0 0 0 0 0 0 0 0 0
0 0 0 0 0 0 0 0 0 0 0 0 0 0 0 0 0 0 0 0 0 0 0 0 0 0 0 0 0 0 0 0 0 0 0 0 0 0 0 0 0 0 0 0
0 0 0 -1 0 0 0 0 0 0 0 0 0 0 0 0 0 0 0 0 0 0 0 0 0 0 0 0 0 0 0 0 0 0 0 0 0 0 0 0 0 0 0 0
0 0 -1 -3 0 0 0 0 0 0 0 0 0 0 0 0 0 0 0 0 0 0 0 0 0 0 0 0 0 0 0 0 0 0 0 0 0 0 0 0 0 0 0 0
0 -1 0 -10 0 0 0 0 0 0 0 0 0 0 0 0 0 0 0 0 0 0 0 0 0 0 0 0 0 0 0 0 0 0 0 0 0 0 0 0 0 0 0 0
0 -5 -1 -6 0 0 0 0 0 0 0 0 0 0 0 0 0 0 0 0 0 0 0 0 0 0 0 0 0 0 0 0 0 0 0 0 0 0 0 0 0 0 0 0
0 0 0 0 0 0 0 0 0 0 0 0 0 0 0 0 0 0 0 0 0 0 0 0 0 0 0 0 0 0 0 0 0 0 0 0 0 0 0 0 0 0 0 0
0 -10 0 0 0 0 0 0 0 0 0 0 0 0 0 0 0 0 0 0 0 0 0 0 0 0 0 0 0 0 0 0 0 0 0 0 0 0 0 0 0 0 0 0
-1 -2 0 -1 0 0 0 0 0 0 0 0 0 0 0 0 0 0 0 0 0 0 0 0 0 0 0 0 0 0 0 0 0 0 0 0 0 0 0 0 0 0 0 0
-3 -2 -2 -1 -1 0 0 0 0 0 0 0 0 0 0 0 0 0 0 0 0 0 0 0 0 0 0 0 0 0 0 0 0 0 0 0 0 0 0 0 0 0 0 0
0 0 0 0 0 -4 0 0 0 0 0 0 0 0 0 0 0 0 0 0 0 0 0 0 0 0 0 0 0 0 0 0 0 0 0 0 0 0 0 0 0 0 0 0
Wind_Speed
15 12 16 21 21 17 17 15 14 17 9 12 13 16 15 12 11 10 10 8 8 10 9 10 10 10 11 11 12 14 13 14 10 9 9 8 8 8 8 9 13 14 13 14
13 16 18 18 19 11 19 13 17 10 5 7 15 14 13 10 9 7 8 9 11 10 9 9 10 10 11 11 11 12 13 14 13 9 9 6 7 8 8 9 10 13 13 14
14 9 7 13 10 14 13 19 16 13 13 7 12 11 14 13 12 8 6 6 8 10 11 10 10 9 10 11 12 12 13 13 13 13 9 8 7 7 8 9 9 11 13 14
13 6 10 13 16 14 11 12 17 16 17 10 17 6 18 17 14 13 12 12 11 10 9 9 8 9 10 10 10 11 11 12 12 14 11 12 9 9 9 8 8 9 12 14
5 10 14 16 16 15 9 5 10 13 17 10 15 9 11 19 17 16 14 13 12 10 9 8 7 7 9 9 9 9 10 11 12 12 11 9 10 8 8 8 10 10 10 12
7 10 12 14 8 9 11 13 10 11 11 8 14 14 12 18 17 17 16 14 13 12 9 8 6 5 7 8 7 7 8 10 10 10 11 10 11 10 9 9 8 8 8 9
9 11 4 7 14 8 16 16 8 8 9 11 14 14 12 8 14 18 19 17 14 12 10 9 9 7 5 6 6 5 8 10 10 10 10 11 10 10 11 11 9 10 9 8
13 9 14 15 15 12 19 18 6 11 13 12 8 7 6 8 10 16 18 17 15 14 11 10 8 7 7 5 6 6 7 8 9 8 10 10 11 8 8 9 8 8 8 9
14 8 13 15 10 7 17 15 6 4 3 5 9 3 1 9 14 19 20 18 17 15 13 11 10 8 7 7 5 4 6 7 8 8 7 8 8 10 9 10 10 9 10 10
8 12 14 8 8 11 9 10 6 5 3 6 9 15 8 19 19 20 21 19 17 15 14 12 11 10 7 6 6 5 4 7 6 6 6 6 7 8 8 8 10 10 10 11
9 7 14 13 17 17 8 11 6 7 8 6 5 5 8 22 22 22 20 19 18 17 15 13 11 10 8 7 7 6 5 5 4 4 5 5 6 7 7 7 8 9 10 10
13 8 15 20 12 15 19 14 15 5 4 4 4 2 1 16 21 21 20 18 17 17 16 14 12 11 10 8 8 7 5 4 3 3 4 5 5 6 6 8 9 9 9 10
12 9 13 15 6 10 14 21 18 14 5 7 4 3 6 15 20 20 19 18 17 17 16 14 13 11 10 9 7 7 5 4 2 3 3 4 5 6 7 8 8 9 9 10
14 11 16 12 7 12 24 21 18 19 10 9 10 8 11 15 21 21 20 19 19 17 16 15 13 12 11 9 8 6 6 3 1 2 3 4 5 5 6 7 8 8 9 10
12 16 17 16 9 11 19 25 24 23 21 15 12 15 16 18 22 22 20 20 20 19 17 16 14 12 12 10 9 7 6 5 2 1 3 3 4 5 5 6 7 8 8 9
14 12 15 10 8 13 13 22 24 26 23 23 14 9 13 17 18 20 21 22 21 20 19 17 15 14 13 12 10 8 7 6 4 3 1 2 3 5 5 6 7 9 9 9
17 10 11 10 13 11 13 17 23 21 24 23 19 13 10 18 20 22 22 23 21 21 20 19 17 15 13 12 11 10 8 6 6 4 3 2 3 5 5 7 8 9 10 10
16 17 7 6 15 19 8 16 18 21 21 23 20 13 16 17 19 19 21 22 22 21 20 19 16 15 14 13 12 10 9 8 6 6 4 4 3 5 4 6 8 9 9 10
17 15 4 5 12 6 19 12 17 22 20 20 19 19 13 16 18 18 22 23 22 20 19 18 16 16 15 14 13 11 10 8 7 6 6 4 4 5 5 4 4 7 9 9
13 12 10 6 12 12 14 15 17 16 17 19 22 20 15 16 16 16 22 23 22 21 19 18 18 17 16 15 14 12 11 9 8 6 5 5 4 5 6 6 7 7 9 10
12 9 12 8 9 8 9 10 10 16 3 13 14 20 20 18 15 12 23 22 22 20 21 20 18 17 16 15 15 14 11 10 7 6 5 5 4 5 6 6 7 8 9 10
14 12 8 11 10 13 13 11 12 3 3 4 3 10 16 17 15 11 21 23 23 23 22 21 18 16 16 16 14 14 12 9 7 7 6 5 4 4 5 7 7 8 9 10
16 13 11 13 11 4 14 7 8 4 6 3 3 2 7 13 16 14 15 22 22 23 21 20 18 18 16 16 15 14 11 10 9 7 6 5 4 5 5 7 7 7 8 8
16 12 11 14 16 18 11 12 11 8 5 5 4 3 3 9 15 16 13 17 20 20 21 20 20 18 17 16 15 13 11 10 9 8 6 4 4 4 6 4 4 5 6 7
11 11 9 11 11 16 13 12 10 10 9 8 6 4 4 6 11 15 15 16 18 19 20 20 19 18 18 17 15 13 12 11 9 7 5 4 3 5 5 5 5 6 7 5
13 13 12 12 13 9 10 15 13 13 13 11 9 8 8 8 10 14 15 15 17 19 20 20 19 18 17 17 15 14 13 12 9 7 5 3 2 4 5 6 7 7 12 9
Wind_Direction
198 206 200 198 203 203 187 220 153 117 160 146 138 145 151 167 156 163 145 127 103 94 76 78 74 73 74 47 40 36 38 28 16 22 15 18 27 26 36 35 32 19 20 21
185 227 202 209 210 256 199 186 124 114 159 226 153 153 158 173 168 153 138 137 133 126 110 88 67 61 55 53 49 50 40 34 23 31 20 13 15 34 27 32 39 28 27 21
205 192 143 199 191 231 198 186 159 164 165 189 164 160 169 179 160 150 141 122 123 125 124 113 100 79 70 51 39 41 40 42 34 12 26 15 24 47 26 24 23 41 30 27
226 113 195 186 201 211 191 189 164 151 177 182 208 230 186 176 183 184 161 162 146 136 119 107 89 72 68 55 48 46 44 39 41 23 27 29 29 25 23 20 26 23 26 29
149 185 193 202 203 204 160 122 167 181 209 187 193 246 208 170 192 186 173 161 155 144 132 122 95 82 64 53 54 45 52 46 41 43 31 28 26 30 28 22 21 25 26 29
141 171 194 206 195 195 136 156 181 201 228 225 226 211 205 185 201 184 173 167 160 152 143 134 121 110 80 61 54 48 52 56 49 45 45 39 41 31 28 30 24 22 22 18
163 167 122 150 157 173 179 164 173 204 210 236 227 205 222 175 184 187 174 173 166 160 158 160 171 125 90 79 66 64 49 50 47 46 44 40 31 35 37 20 25 18 14 13
173 178 174 184 187 182 193 192 191 211 210 223 129 242 220 150 168 171 166 171 168 172 169 173 147 143 126 96 60 58 58 51 47 44 39 35 29 25 27 26 13 15 11 9
201 158 169 178 185 206 193 208 313 314 264 278 177 147 155 157 171 162 168 171 175 181 174 176 153 157 143 126 102 72 68 64 46 37 32 29 25 20 15 13 7 7 7 358
181 141 167 161 223 209 255 186 200 231 224 225 221 193 210 180 176 168 172 176 176 181 177 169 167 161 151 124 122 113 77 66 55 41 27 26 19 14 11 7 7 4 358 358
216 162 181 164 205 187 180 211 210 253 247 262 208 219 352 178 180 175 175 178 178 176 174 167 168 159 156 145 132 131 111 88 70 42 29 18 12 5 4 5 1 0 352 355
197 205 177 198 198 218 198 217 192 174 235 242 320 350 38 168 177 179 178 179 175 175 173 171 167 162 157 159 149 143 139 124 86 49 28 18 6 360 1 1 356 354 350 351
156 173 171 174 193 227 234 204 210 199 175 221 204 223 176 163 175 181 180 176 173 176 172 165 167 170 167 160 162 154 159 126 77 27 14 26 3 358 354 354 349 350 349 348
171 214 201 191 201 187 206 212 208 209 213 220 216 154 175 178 177 179 180 176 174 178 171 169 171 170 168 166 164 170 154 150 85 4 350 17 353 348 350 350 347 347 345 343
204 233 212 230 266 193 200 205 203 210 215 219 228 234 175 187 182 181 177 176 176 180 175 175 176 170 171 171 170 179 167 167 196 265 319 357 345 338 349 346 341 343 339 339
200 228 228 226 231 238 214 205 211 212 215 231 237 239 158 179 181 179 181 181 182 182 179 178 178 175 175 177 179 177 177 183 197 225 273 332 332 329 350 340 338 340 341 343
198 217 219 208 219 216 226 218 207 214 219 222 223 216 156 173 189 185 185 185 187 183 182 181 182 179 179 179 181 179 184 179 204 208 217 261 302 321 346 335 342 343 338 334
199 202 192 207 210 225 231 219 222 220 222 223 230 225 203 197 195 190 189 187 189 184 184 182 182 179 179 178 181 179 184 188 203 210 214 232 286 308 326 332 338 335 327 333
211 193 134 183 218 255 212 215 221 211 223 218 221 217 232 183 188 196 192 192 191 187 184 182 181 178 177 180 176 184 188 193 197 212 211 229 266 288 306 315 248 319 323 323
212 234 183 189 221 219 232 208 214 221 237 226 218 208 203 182 201 198 190 191 187 187 182 179 179 175 177 179 177 186 192 197 205 199 200 222 257 283 308 320 317 317 316 318
190 207 207 188 225 241 262 128 167 191 261 197 209 207 202 204 208 206 176 190 187 185 181 177 177 177 179 177 179 191 197 201 197 183 205 230 268 292 303 310 309 316 314 316
183 176 192 210 204 233 127 149 204 145 121 129 238 204 203 206 206 223 174 186 186 183 179 178 177 178 175 179 184 192 196 190 180 193 205 226 263 301 308 311 310 315 314 315
204 196 193 195 210 251 172 196 169 205 157 137 123 151 229 208 197 203 187 184 186 184 177 178 177 176 176 179 188 196 189 172 188 195 209 226 264 296 314 307 318 324 331 325
239 215 215 200 206 212 199 220 191 212 189 155 129 85 195 208 199 191 192 190 186 181 179 178 178 177 178 180 190 197 177 178 187 199 204 222 251 307 300 312 320 312 300 300
210 221 221 225 230 208 195 218 202 204 220 235 240 223 209 194 205 198 197 196 188 181 180 182 181 180 179 181 187 185 170 180 192 198 205 228 272 287 297 302 295 296 295 313
247 212 215 230 211 197 212 216 222 215 217 220 219 217 219 211 204 205 200 192 190 186 180 183 182 180 179 181 182 180 173 183 191 196 209 210 227 277 291 291 295 236 233 243